Hourly Data Report for July 04, 2021

CAMPBELL RIVER A
BRITISH COLUMBIA
Current Station Operator: NAVCAN

49°57'07.000" N
125°16'23.000" W
108.80 m
1021270
YBL

Download Data

Hourly Data (July 2021)
Hourly Data Report for July 4, 2021
TIME
LST
Temp Definition
°C
Dew Point Definition
°C
Rel Hum Definition
%
Precip. Amount Definition
mm

Wind Dir Definition
10's deg

Wind Spd Definition
km/h
Visibility Definition
km
Stn Press Definition
kPa
Hmdx Definition


Wind Chill Definition


Weather Definition


00:00 13.7 9.1 74 LegendMM 30 10 LegendMM 100.19     LegendNANA
01:00 13.4 9.0 74 LegendMM 29 11 LegendMM 100.20     LegendNANA
02:00 13.1 8.9 76 LegendMM 28 16 LegendMM 100.21     LegendNANA
03:00 12.4 9.2 81 LegendMM 29 17 LegendMM 100.21     LegendNANA
04:00 12.2 9.1 81 LegendMM 30 15 LegendMM 100.21     LegendNANA
05:00 12.3 9.3 82 LegendMM 29 14 LegendMM 100.25     LegendNANA
06:00 13.8 9.6 75 LegendMM 30 16 LegendMM 100.28     LegendNANA
07:00 15.9 10.0 68 LegendMM 31 17 LegendMM 100.30     LegendNANA
08:00 17.4 10.2 63 LegendMM 30 17 LegendMM 100.30     LegendNANA
09:00 19.4 10.9 57 LegendMM 28 12 LegendMM 100.29     LegendNANA
10:00 20.9 11.6 55 LegendMM 22 3 LegendMM 100.28     LegendNANA
11:00 21.9 11.7 52 LegendMM 12 14 LegendMM 100.27     LegendNANA
12:00 22.8 12.0 50 LegendMM 6 11 LegendMM 100.24 25   LegendNANA
13:00 24.3 12.1 46 LegendMM 9 12 LegendMM 100.21 27   LegendNANA
14:00 24.8 12.1 45 LegendMM 6 12 LegendMM 100.19 27   LegendNANA
15:00 25.9 12.6 43 LegendMM 4 8 LegendMM 100.15 28   LegendNANA
16:00 25.6 12.3 43 LegendMM 6 10 LegendMM 100.13 28   LegendNANA
17:00 26.1 12.5 42 LegendMM 5 8 LegendMM 100.13 29   LegendNANA
18:00 25.1 12.8 46 LegendMM 7 6 LegendMM 100.13 28   LegendNANA
19:00 24.8 12.5 46 LegendMM 35 10 LegendMM 100.15 27   LegendNANA
20:00 21.4 13.9 62 LegendMM 28 7 LegendMM 100.16 25   LegendNANA
21:00 20.3 12.2 59 LegendMM 29 9 LegendMM 100.20     LegendNANA
22:00 18.9 11.8 63 LegendMM 30 11 LegendMM 100.22     LegendNANA
23:00 18.2 11.7 66 LegendMM 30 13 LegendMM 100.22     LegendNANA

Notes on Data Quality.

Legend

  • E = Estimated
  • M = Missing
  • NA = Not Available*
  • [empty] = Indicates an unobserved value
Date modified: